Location: Hurecourt
(47.9030°N, 6.0653°E)
Time: 08:51:45
(UTC+00:00)

Spot 4 Rocket - Pass Details

Date: 14 July 2020
Orbit: 777 x 780 km, 98.7° (Epoch: 14 August)

Event Time Altitude Azimuth Distance (km) Brightness Sun altitude
Rises 03:02:21 0° 13° (NNE) 3,275 8.3 -7.2°
Reaches altitude 10° 03:04:40 10° 12° (NNE) 2,343 7.5 -6.9°
Maximum altitude 03:09:50 76° 287° (WNW) 810 4.1 -6.3°
Drops below altitude 10° 03:14:57 10° 203° (SSW) 2,328 5.9 -5.7°
Enters shadow 03:16:29 - 202° (SSW) 2,941 6.5 -5.5°
